Location: Bishop�s Knoyle
(51.0728°N, 2.1714°W)
Time: 11:37:43
(UTC+00:00)

ARIANE 5 R/B - Pass Details

Date: 18 September 2020
Orbit: 620 x 657 km, 98.2° (Epoch: 09 October)

Event Time Altitude Azimuth Distance (km) Brightness Sun altitude
Exits shadow 19:37:43 17° 80° (E) 1,581 4.1 -13.5°
Maximum altitude 19:38:54 19° 59° (ENE) 1,494 4.2 -13.7°
Drops below altitude 10° 19:41:57 10° 14° (NNE) 2,003 5.3 -14.1°
Sets 19:44:39 0° 357° (N) 2,913 6.3 -14.5°
